Overview Statistics Trail Chart Weather Telemetry Raw packets
 

This is the latest recevied weather packets stored in our database for station/object KE6YLF. If no packets are shown the sender has not sent any weather packets the latest 10 day(s).

<< 70 71 72 73 74 75 76 >>
Time Temp. Humidity Pressure Rain* Wind** Luminosity Snow
1788189661 27.78° C 65% 1077.8 hPa 0 mm - - -
1788189360 28.33° C 63% 1078 hPa 0 mm - - -
1788189055 27.78° C 63% 1077.8 hPa 0 mm - - -
1788188744 27.78° C 64% 1077.9 hPa 0 mm - - -
1788188441 27.78° C 63% 1077.8 hPa 0 mm - - -
1788188135 27.78° C 63% 1078 hPa 0 mm - - -
1788187831 26.67° C 66% 1077.9 hPa 0 mm - - -
1788187526 26.67° C 69% 1077.9 hPa 0 mm - - -
1788187222 26.11° C 69% 1077.9 hPa 0 mm - - -
1788186921 26.11° C 69% 1077.7 hPa 0 mm - - -
1788186617 26.11° C 70% 1077.5 hPa 0 mm - - -
1788186314 26.11° C 71% 1077.8 hPa 0 mm - - -
1788186008 26.11° C 72% 1077.7 hPa 0 mm - - -
1788185702 26.11° C 72% 1077.6 hPa 0 mm - - -
1788185397 26.11° C 71% 1077.5 hPa 0 mm - - -
1788185097 26.11° C 72% 1077.3 hPa 0 mm - - -
1788184800 26.11° C 72% 1077.4 hPa 0 mm - - -
1788184495 26.11° C 72% 1077.1 hPa 0 mm - - -
1788184190 26.11° C 72% 1076.9 hPa 0 mm - - -
1788183887 26.11° C 71% 1077 hPa 0 mm - - -
1788183585 26.11° C 71% 1077.1 hPa 0 mm - - -
1788183280 26.11° C 71% 1076.9 hPa 0 mm - - -
1788182976 26.67° C 70% 1076.7 hPa 0 mm - - -
1788182671 26.67° C 69% 1076.6 hPa 0 mm - - -
1788182371 26.67° C 68% 1076.4 hPa 0 mm - - -

* Rain latest hour (hover to see other rain measurements)
** Current wind speed in m/s (hover to see current wind gust speed)